Torna al catalogo

ATLAS 5 CENTAUR DEB

LostHEO
NORAD 46666·DEBRIS·🇺🇸 United States

Lanciato Oct 17, 2018 da Cape Canaveral Space Force Station

Loading…

Prossimi Passaggi (prossime 24 ore)

TLE

ObsoletoSource: Space-Track

Epoca: Apr 4, 2024, 09:03 UTC

1 46666U 18079CU  24095.37776378 -.00000042  00000-0  00000-0 0  9998
2 46666  11.0855 126.9675 4716990 122.1356 292.4330  1.55714926   667

Traccia ATLAS 5 CENTAUR DEB in tempo reale con AllMySat

Download on the App Store